Weather History for Tehachapi, CA

Change the Weather History Date:

Sunday, June 16, 2013

  Actual Average Record
Temperature  
Mean Temperature 66 °F -  
Max Temperature 77 °F 80 °F 91 °F (2012)
Min Temperature 55 °F 51 °F 53 °F (2012)
Cooling Degree Days 1    
Growing Degree Days 16 (Base 50)    
Moisture  
Dew Point 31 °F    
Average Humidity 27    
Maximum Humidity 48    
Minimum Humidity 16    
Precipitation  
Precipitation 0.00 in - - ()
Sea Level Pressure  
Sea Level Pressure 30.11 in    
Wind  
Wind Speed 13 mph (WNW)    
Max Wind Speed 23 mph    
Max Gust Speed 32 mph    
Visibility 10 miles    
Events      
Averages and records for this station are not official NWS values.
T = Trace of Precipitation, MM = Missing Value Source: NWS Daily Summary

Daily Weather History Graph

Daily Weather History Graph

Search for Another Location

Airport:

Trip Planner

Search our weather history database for the weather conditions in past years. The results will help you decide how hot, cold, wet, or windy it might be!

Date:

Astronomy

Jun. 16, 2013 Rise Set
Actual Time 5:39 AM PDT 8:10 PM PDT
Civil Twilight 5:09 AM PDT 8:39 PM PDT
Nautical Twilight 4:32 AM PDT 9:16 PM PDT
Astronomical Twilight 3:51 AM PDT 9:57 PM PDT
Moon 1:03 PM PDT (6/16) 12:32 AM PDT (6/16)
Length of Visible Light 15h 30m
Length of Day
14h 31m
Waxing Crescent, 51% of the Moon is Illuminated
Jun 16
Waxing Crescent
Jun 23
Full
Jun 29
Last Quarter
Jul 8
New
Jul 15
First Quarter

Hourly Weather History & Observations

Time (PDT) Temp. Dew Point Humidity Pressure Visibility Wind Dir Wind Speed Gust Speed Precip Events Conditions
12:15 AM 60.8 °F 23.0 °F 23% 30.07 in 10.0 mi West 9.2 mph - N/A   Clear
12:35 AM 62.6 °F 23.0 °F 22% 30.07 in 10.0 mi West 9.2 mph - N/A   Clear
12:55 AM 60.8 °F 23.0 °F 23% 30.07 in 10.0 mi WNW 9.2 mph - N/A   Clear
1:15 AM 60.8 °F 23.0 °F 23% 30.06 in 10.0 mi WNW 10.4 mph - N/A   Clear
1:35 AM 60.8 °F 24.8 °F 25% 30.06 in 10.0 mi West 9.2 mph - N/A   Clear
1:55 AM 60.8 °F 24.8 °F 25% 30.06 in 10.0 mi West 15.0 mph - N/A   Clear
2:15 AM 60.8 °F 26.6 °F 27% 30.06 in 10.0 mi West 15.0 mph 19.6 mph N/A   Clear
2:35 AM 59.0 °F 28.4 °F 31% 30.07 in 10.0 mi West 11.5 mph - N/A   Clear
2:55 AM 59.0 °F 28.4 °F 31% 30.06 in 10.0 mi West 15.0 mph 18.4 mph N/A   Clear
3:15 AM 59.0 °F 28.4 °F 31% 30.06 in 10.0 mi West 12.7 mph 17.3 mph N/A   Clear
3:35 AM 59.0 °F 28.4 °F 31% 30.07 in 10.0 mi WNW 13.8 mph - N/A   Clear
3:55 AM 59.0 °F 28.4 °F 31% 30.06 in 10.0 mi WNW 10.4 mph - N/A   Clear
4:15 AM 57.2 °F 28.4 °F 33% 30.07 in 10.0 mi WNW 11.5 mph - N/A   Clear
4:35 AM 57.2 °F 30.2 °F 36% 30.07 in 10.0 mi West 12.7 mph - N/A   Clear
4:55 AM 57.2 °F 30.2 °F 36% 30.07 in 10.0 mi West 12.7 mph 21.9 mph N/A   Clear
5:15 AM 57.2 °F 32.0 °F 38% 30.08 in 10.0 mi West 9.2 mph - N/A   Clear
5:35 AM 55.4 °F 28.4 °F 36% 30.08 in 10.0 mi NW 9.2 mph - N/A   Clear
5:55 AM 55.4 °F 28.4 °F 36% 30.09 in 10.0 mi NW 6.9 mph - N/A   Clear
6:15 AM 55.4 °F 32.0 °F 41% 30.09 in 10.0 mi WNW 6.9 mph - N/A   Clear
6:35 AM 59.0 °F 39.2 °F 48% 30.09 in 10.0 mi West 8.1 mph - N/A   Clear
6:55 AM 60.8 °F 37.4 °F 42% 30.10 in 10.0 mi West 12.7 mph - N/A   Clear
7:15 AM 62.6 °F 37.4 °F 39% 30.10 in 10.0 mi West 10.4 mph - N/A   Clear
7:35 AM 64.4 °F 35.6 °F 34% 30.11 in 10.0 mi WNW 10.4 mph - N/A   Clear
7:55 AM 64.4 °F 35.6 °F 34% 30.12 in 10.0 mi WNW 10.4 mph - N/A   Clear
8:15 AM 66.2 °F 32.0 °F 28% 30.12 in 10.0 mi NW 8.1 mph - N/A   Clear
8:35 AM 66.2 °F 32.0 °F 28% 30.13 in 10.0 mi WNW 9.2 mph - N/A   Clear
8:55 AM 66.2 °F 33.8 °F 30% 30.14 in 10.0 mi WNW 9.2 mph - N/A   Clear
9:15 AM 68.0 °F 33.8 °F 28% 30.14 in 10.0 mi WNW 9.2 mph - N/A   Clear
9:35 AM 69.8 °F 33.8 °F 27% 30.14 in 10.0 mi NW 12.7 mph - N/A   Clear
9:55 AM 71.6 °F 32.0 °F 23% 30.14 in 10.0 mi NW 15.0 mph 19.6 mph N/A   Clear
10:15 AM 71.6 °F 33.8 °F 25% 30.14 in 10.0 mi NW 17.3 mph 23.0 mph N/A   Clear
10:35 AM 71.6 °F 33.8 °F 25% 30.14 in 10.0 mi NW 16.1 mph 21.9 mph N/A   Clear
10:55 AM 73.4 °F 32.0 °F 22% 30.14 in 10.0 mi NW 15.0 mph 23.0 mph N/A   Clear
11:15 AM 73.4 °F 33.8 °F 23% 30.14 in 10.0 mi NW 16.1 mph 21.9 mph N/A   Clear
11:35 AM 73.4 °F 33.8 °F 23% 30.14 in 10.0 mi NW 17.3 mph 23.0 mph N/A   Clear
11:55 AM 73.4 °F 32.0 °F 22% 30.14 in 10.0 mi NW 16.1 mph 23.0 mph N/A   Clear
12:15 PM 75.2 °F 32.0 °F 21% 30.14 in 10.0 mi NW 17.3 mph 23.0 mph N/A   Clear
12:35 PM 75.2 °F 30.2 °F 19% 30.13 in 10.0 mi NW 15.0 mph 26.5 mph N/A   Clear
12:55 PM 77.0 °F 28.4 °F 17% 30.13 in 10.0 mi NW 20.7 mph 24.2 mph N/A   Clear
1:15 PM 77.0 °F 26.6 °F 16% 30.13 in 10.0 mi NW 19.6 mph 28.8 mph N/A   Clear
1:35 PM 77.0 °F 28.4 °F 17% 30.13 in 10.0 mi NW 19.6 mph 25.3 mph N/A   Clear
1:55 PM 77.0 °F 28.4 °F 17% 30.12 in 10.0 mi NW 16.1 mph 27.6 mph N/A   Clear
2:15 PM 77.0 °F 32.0 °F 19% 30.12 in 10.0 mi NW 20.7 mph 27.6 mph N/A   Clear
2:35 PM 77.0 °F 32.0 °F 19% 30.12 in 10.0 mi NW 19.6 mph 27.6 mph N/A   Clear
2:55 PM 77.0 °F 32.0 °F 19% 30.12 in 10.0 mi NW 21.9 mph 28.8 mph N/A   Clear
3:15 PM 77.0 °F 32.0 °F 19% 30.12 in 10.0 mi NW 21.9 mph 27.6 mph N/A   Clear
3:35 PM 75.2 °F 32.0 °F 21% 30.12 in 10.0 mi NW 20.7 mph 28.8 mph N/A   Clear
3:55 PM 77.0 °F 32.0 °F 19% 30.12 in 10.0 mi NW 21.9 mph 28.8 mph N/A   Clear
4:15 PM 75.2 °F 32.0 °F 21% 30.12 in 10.0 mi NW 21.9 mph 28.8 mph N/A   Clear
4:35 PM 75.2 °F 32.0 °F 21% 30.11 in 10.0 mi NW 23.0 mph 29.9 mph N/A   Clear
4:55 PM 75.2 °F 32.0 °F 21% 30.11 in 10.0 mi NW 21.9 mph 28.8 mph N/A   Clear
5:15 PM 75.2 °F 32.0 °F 21% 30.11 in 10.0 mi NW 21.9 mph 27.6 mph N/A   Clear
5:35 PM 75.2 °F 32.0 °F 21% 30.11 in 10.0 mi NW 20.7 mph 26.5 mph N/A   Clear
5:55 PM 75.2 °F 30.2 °F 19% 30.11 in 10.0 mi NW 20.7 mph 27.6 mph N/A   Clear
6:15 PM 73.4 °F 28.4 °F 19% 30.11 in 10.0 mi NW 21.9 mph 27.6 mph N/A   Clear
6:35 PM 73.4 °F 28.4 °F 19% 30.12 in 10.0 mi NW 20.7 mph 27.6 mph N/A   Clear
6:55 PM 71.6 °F 26.6 °F 19% 30.12 in 10.0 mi NW 21.9 mph 32.2 mph N/A   Clear
7:15 PM 71.6 °F 28.4 °F 20% 30.12 in 10.0 mi WNW 20.7 mph 26.5 mph N/A   Clear
7:35 PM 71.6 °F 26.6 °F 19% 30.12 in 10.0 mi WNW 16.1 mph 24.2 mph N/A   Clear
7:55 PM 68.0 °F 32.0 °F 26% 30.12 in 10.0 mi West 12.7 mph - N/A   Clear
8:15 PM 68.0 °F 30.2 °F 24% 30.13 in 10.0 mi West 15.0 mph - N/A   Clear
8:35 PM 66.2 °F 32.0 °F 28% 30.12 in 10.0 mi West 13.8 mph - N/A   Clear
8:55 PM 66.2 °F 32.0 °F 28% 30.13 in 10.0 mi West 12.7 mph 20.7 mph N/A   Clear
9:15 PM 66.2 °F 32.0 °F 28% 30.13 in 10.0 mi West 15.0 mph - N/A   Clear
9:35 PM 66.2 °F 32.0 °F 28% 30.14 in 10.0 mi WNW 17.3 mph 20.7 mph N/A   Clear
9:55 PM 64.4 °F 32.0 °F 30% 30.14 in 10.0 mi West 15.0 mph 20.7 mph N/A   Clear
10:15 PM 64.4 °F 32.0 °F 30% 30.15 in 10.0 mi WNW 11.5 mph - N/A   Clear
10:35 PM 64.4 °F 32.0 °F 30% 30.15 in 10.0 mi West 12.7 mph 16.1 mph N/A   Clear
10:55 PM 62.6 °F 32.0 °F 32% 30.15 in 10.0 mi West 13.8 mph - N/A   Clear
11:15 PM 62.6 °F 32.0 °F 32% 30.15 in 10.0 mi West 13.8 mph - N/A   Clear
11:35 PM 62.6 °F 32.0 °F 32% 30.15 in 10.0 mi WNW 13.8 mph - N/A   Clear
11:55 PM 62.6 °F 35.6 °F 37% 30.14 in 10.0 mi West 16.1 mph - N/A   Clear